Weather History for KEKO - September, 2013

Change the Weather History Date:

Wednesday, September 11, 2013

  Actual Average Record
Temperature  
Mean Temperature 68 °F 61 °F  
Max Temperature 80 °F 81 °F 94 °F (1990)
Min Temperature 56 °F 41 °F 20 °F (1916)
Degree Days  
Heating Degree Days 0 5  
Month to date heating degree days 1 43  
Since 1 July heating degree days 1 94  
Cooling Degree Days 3 1  
Month to date cooling degree days 56 15  
Year to date cooling degree days 766 377  
Growing Degree Days 18 (Base 50)    
Moisture  
Dew Point 47 °F    
Average Humidity 56    
Maximum Humidity 80    
Minimum Humidity 31    
Precipitation  
Precipitation T in 0.02 in 0.41 in (1976)
Month to date precipitation 0.95 0.17  
Year to date precipitation 4.61 6.45  
Snow  
Snow 0.00 in 0.00 in T in (1952)
Month to date snowfall 0.0 0.0  
Since 1 July snowfall 0.0 0.0  
Since 1 September snowfall 0.0 0.0  
Snow Depth 0.00 in    
Sea Level Pressure  
Sea Level Pressure 29.95 in    
Wind  
Wind Speed 4 mph (East)    
Max Wind Speed 22 mph    
Max Gust Speed 26 mph    
Visibility 10 miles    
Events      
T = Trace of Precipitation, MM = Missing Value Source: NWS Daily Summary

Daily Weather History Graph

Daily Weather History Graph

Search for Another Location

Airport or City:

Trip Planner

Search our weather history database for the weather conditions in past years. The results will help you decide how hot, cold, wet, or windy it might be!

Date:

Astronomy

Sep. 11, 2013 Rise Set
Actual Time 6:20 AM PDT 6:58 PM PDT
Civil Twilight 5:52 AM PDT 7:25 PM PDT
Nautical Twilight 5:19 AM PDT 7:58 PM PDT
Astronomical Twilight 4:46 AM PDT 8:32 PM PDT
Moon 12:55 PM PDT (9/11) 10:56 PM PDT (9/11)
Length of Visible Light 13h 33m
Length of Day
12h 38m
Waxing Crescent, 40% of the Moon is Illuminated
Sep 11
Waxing Crescent
Sep 12
First Quarter
Sep 19
Full
Sep 26
Last Quarter
Oct 4
New

Hourly Weather History & Observations

Time (PDT) Temp. Dew Point Humidity Pressure Visibility Wind Dir Wind Speed Gust Speed Precip Events Conditions
12:56 AM 66.0 °F 35.1 °F 32% 29.91 in 10.0 mi ENE 5.8 mph - N/A   Clear
1:56 AM 64.9 °F 36.0 °F 34% 29.91 in 10.0 mi East 5.8 mph - N/A   Mostly Cloudy
2:56 AM 61.0 °F 41.0 °F 48% 29.91 in 10.0 mi West 4.6 mph - N/A   Overcast
3:56 AM 59.0 °F 39.0 °F 48% 29.91 in 10.0 mi SW 3.5 mph - N/A   Overcast
4:56 AM 61.0 °F 39.0 °F 44% 29.91 in 10.0 mi Calm Calm - N/A   Partly Cloudy
5:56 AM 60.1 °F 39.9 °F 47% 29.92 in 10.0 mi Calm Calm - N/A   Partly Cloudy
6:56 AM 61.0 °F 41.0 °F 48% 29.94 in 10.0 mi Calm Calm - N/A   Clear
7:56 AM 68.0 °F 39.9 °F 36% 29.94 in 10.0 mi ENE 5.8 mph - N/A   Clear
8:56 AM 71.1 °F 39.9 °F 32% 29.94 in 10.0 mi NE 6.9 mph - N/A   Partly Cloudy
9:56 AM 73.9 °F 43.0 °F 33% 29.93 in 10.0 mi NE 11.5 mph - N/A   Clear
10:56 AM 77.0 °F 46.9 °F 34% 29.92 in 10.0 mi NE 12.7 mph - N/A   Partly Cloudy
11:56 AM 78.1 °F 46.9 °F 33% 29.91 in 10.0 mi NNE 15.0 mph 20.7 mph N/A   Clear
12:56 PM 77.0 °F 48.0 °F 36% 29.91 in 10.0 mi NNE 11.5 mph 18.4 mph N/A   Mostly Cloudy
1:52 PM 73.4 °F 51.8 °F 47% 30.09 in 10.0 mi SE 12.7 mph - N/A   Mostly Cloudy
1:56 PM 72.0 °F 51.1 °F 48% 29.94 in 10.0 mi SSE 12.7 mph - N/A   Mostly Cloudy
2:03 PM 69.8 °F 51.8 °F 53% 30.10 in 10.0 mi SSE 12.7 mph 18.4 mph N/A   Mostly Cloudy
2:56 PM 70.0 °F 54.0 °F 57% 29.96 in 10.0 mi ESE 5.8 mph - 0.00 in   Mostly Cloudy
3:56 PM 72.0 °F 53.1 °F 51% 29.95 in 10.0 mi Calm Calm - N/A   Mostly Cloudy
4:56 PM 71.1 °F 52.0 °F 51% 29.95 in 10.0 mi Calm Calm - N/A   Overcast
5:56 PM 69.1 °F 53.1 °F 57% 29.94 in 10.0 mi SW 3.5 mph - N/A   Clear
6:56 PM 66.0 °F 55.0 °F 68% 29.96 in 10.0 mi SSW 3.5 mph - N/A   Scattered Clouds
7:56 PM 63.0 °F 55.0 °F 75% 29.96 in 10.0 mi Calm Calm - N/A   Mostly Cloudy
8:56 PM 62.1 °F 54.0 °F 75% 29.96 in 10.0 mi Calm Calm - N/A   Mostly Cloudy
9:56 PM 61.0 °F 53.1 °F 75% 29.96 in 10.0 mi Calm Calm - N/A   Clear
10:56 PM 60.1 °F 52.0 °F 75% 29.96 in 10.0 mi Calm Calm - N/A   Mostly Cloudy
11:56 PM 57.9 °F 52.0 °F 81% 29.96 in 10.0 mi Calm Calm - N/A   Partly Cloudy